[[{"header":{"parameterUnit":"m.s-1","parameterCategory":1,"la1":30.2991,"la2":30.254,"lo1":-89.0895,"lo2":-89.0444,"dy":0.0017,"dx":0.0017,"nx":28,"ny":28,"refTime":"2025-04-17T21:00:00:Z","depth":0,"parameterNumber":2,"parameterNumberName":"U-component_of_WINDS"},"data":[0,0,0,0,0,0,0,0,0,0,0,0,0,0,0,0,0,0,0,0,0,0,0,0,0,0,0,0,0,0,0,0,0,0,0,0,0,0,0,0,0,0,0,0,0,0,0,0,0,0,0,0,0,0,0,0,0,0,-4.8761,-4.8762,0,-4.8902,-4.8904,-4.8905,-4.8908,-4.8906,-4.8904,-4.8903,-4.9047,-4.9052,-4.9058,0,0,0,0,0,0,0,0,0,0,0,0,0,-4.8494,-4.8499,-4.8761,-4.8763,-4.8764,-4.8902,-4.8904,-4.8906,-4.8908,-4.8906,-4.8904,-4.8902,-4.9045,-4.9051,-4.9058,0,0,0,0,0,0,0,0,0,0,0,0,0,-4.862,-4.85,-4.876,-4.8782,-4.8786,-4.8901,-4.8904,-4.8906,-4.8909,-4.8906,-4.8903,-4.8901,-4.9043,-4.9051,-4.9059,-4.9162,0,0,-4.9084,-4.9088,0,0,0,0,0,0,0,0,-4.8613,-4.863,-4.8777,-4.8781,-4.8785,-4.8885,-4.8862,-4.8992,-4.8909,-4.8862,-4.8903,-4.89,-4.8995,-4.9007,-4.9039,-4.9169,-4.9175,-4.9085,-4.909,-4.9093,-4.9096,0,0,0,0,0,0,0,-4.8604,-4.8624,-4.8817,-4.8779,-4.8784,-4.8785,-4.88,-4.8887,-4.8941,-4.8866,-4.8866,-4.8883,-4.8996,-4.9031,-4.9043,-4.9177,-4.9084,-4.9092,-4.9097,-4.91,-4.9399,-4.9402,0,0,0,0,0,0,-4.8591,-4.8616,-4.8812,-4.8821,-4.8691,-4.8792,-4.8809,-4.8855,-4.8941,-4.8951,-4.8885,-4.8883,-4.9018,-4.9033,-4.9048,-4.9174,-4.9093,-4.9101,-4.9106,-4.9396,-4.94,-4.9403,0,0,0,0,0,0,-4.8585,-4.8608,-4.8806,-4.8719,-4.8744,-4.8799,-4.8852,-4.8859,-4.8894,-4.8955,-4.8965,-4.8911,-4.9017,-4.9036,-4.9134,-4.9179,-4.9105,-4.9112,-4.9393,-4.9397,-4.9402,-4.9427,0,0,0,0,0,0,-4.8577,-4.8606,-4.8646,-4.872,-4.8749,-4.889,-4.8854,-4.8864,-4.8908,-4.8906,-4.8982,-4.8991,-4.9016,-4.9122,-4.9142,-4.9189,-4.9118,-4.9389,-4.9395,-4.94,-4.9422,-4.9431,-4.944,0,0,0,0,0,-4.8568,-4.8647,-4.8648,-4.8671,-4.88,-4.8893,-4.8909,-4.8936,-4.8912,-4.8952,-4.8992,-4.8989,-4.9171,-4.9132,-4.9155,-4.9204,-4.9386,-4.9393,-4.94,-4.9418,-4.943,-4.9439,0,0,0,0,0,0,-4.8577,-4.8657,-4.8659,-4.8764,-4.8822,-4.8893,-4.8944,-4.8948,-4.9013,-4.9009,-4.904,-4.9057,-4.9154,-4.9189,-4.9144,-4.9309,-4.9276,-4.9287,-4.9282,-4.9293,-4.9302,-4.929,-4.9125,0,0,0,0,0,-4.8591,-4.866,-4.8727,-4.8814,-4.8843,-4.8889,-4.893,-4.8946,-4.9007,-4.9031,-4.9078,-4.9136,-4.9207,-4.9252,-4.9321,-4.9428,-4.9444,-4.9474,-4.9483,-4.9489,-4.9499,-4.9558,-4.9571,-4.9426,-4.9425,-4.9425,0,0,-4.8621,-4.8674,-4.8715,-4.8817,-4.8863,-4.8934,-4.8909,-4.8985,-4.9037,-4.9043,-4.9137,-4.9174,-4.9242,-4.9344,-4.9392,-4.9377,-4.9543,-4.9498,-4.9503,-4.9509,-4.9566,-4.958,-4.9592,-4.943,-4.9429,-4.9429,0,0,-4.8712,-4.8759,-4.8836,-4.8883,-4.8954,-4.8984,-4.9003,-4.9074,-4.9099,-4.9195,-4.92,-4.9263,-4.9384,-4.9432,-4.9472,-4.9582,-4.9582,-4.9604,-4.9649,-4.9706,-4.9717,-4.9728,-4.9766,-4.9779,-4.9613,-4.9613,-4.9613,0,-4.874,-4.8847,-4.8875,-4.8951,-4.8996,-4.9005,-4.9083,-4.9127,-4.9216,-4.9247,-4.9229,-4.9381,-4.9427,-4.9541,-4.9568,-4.9601,-4.9623,-4.9594,-4.9714,-4.9724,-4.9734,-4.9771,-4.9785,-4.9615,-4.9615,-4.9615,-4.9615,0,-4.8878,-4.8951,-4.9005,-4.9091,-4.9142,-4.9219,-4.9259,-4.9307,-4.9319,-4.9352,-4.9449,-4.9506,-4.9585,-4.9614,-4.9627,-4.973,-4.9718,-4.9707,-4.9674,-4.975,-4.9784,-4.9799,-4.9618,-4.9618,-4.9617,-4.9617,0,0,-4.8976,-4.9077,-4.9096,-4.9135,-4.9215,-4.9272,-4.935,-4.9428,-4.9468,-4.953,-4.9595,-4.9698,-4.9688,-4.9733,-4.9752,-4.9803,-4.9885,-4.9785,-4.9787,-4.98,-5.0001,-5.0008,-5.0023,-4.9886,-4.9889,-4.9892,-4.9995,0,-4.9073,-4.9211,-4.9239,-4.9358,-4.9426,-4.9437,-4.9504,-4.956,-4.9593,-4.9656,-4.9692,-4.9764,-4.9746,-4.9774,-4.9824,-4.9864,-4.9925,-4.9857,-4.9946,-4.9949,-4.9927,-5.0042,-5.0049,-5.0144,-5.0009,-5.0011,-5.0013,0,-4.9205,-4.927,-4.9395,-4.9466,-4.9495,-4.9555,-4.9629,-4.969,-4.9753,-4.9774,-4.9825,-4.9839,-4.992,-4.9885,-4.9996,-4.9949,-4.9988,-5.0013,-5.0018,-5.0025,-4.9984,-5.0051,-5.0175,-5.0188,-5.0035,-5.0033,-5.0032,0,-4.9262,-4.9381,-4.9471,-4.9505,-4.9589,-4.9631,-4.9668,-4.973,-4.9775,-4.984,-4.9869,-4.9943,-4.9983,-5.004,-5.0073,-5.0045,-5.0182,-5.015,-5.02,-5.02,-5.0227,-5.0224,-5.0357,-5.0255,-5.0255,-5.0255,-5.0254,0,-4.9367,-4.9443,-4.9498,-4.9553,-4.9639,-4.9672,-4.9755,-4.9793,-4.9847,-4.991,-4.9924,-4.9983,-5.0024,-5.0088,-5.0115,-5.0203,-5.0221,-5.024,-5.0245,-5.0237,-5.0235,-5.0261,-5.0255,-5.0259,-5.0258,-5.0257,-5.0256,0,-4.9444,-4.9484,-4.9583,-4.9655,-4.9675,-4.9735,-4.9797,-4.9851,-4.9885,-4.9964,-4.9985,-5.0037,-5.0114,-5.0153,-5.0249,-5.0267,-5.0365,-5.0368,-5.0343,-5.0345,-5.0393,-5.0388,-5.0546,-5.0568,-5.0453,-5.0454,-5.0455,0,-4.9508,-4.9566,-4.9645,-4.9688,-4.9726,-4.9795,-4.9841,-4.9877,-4.9924,-5.0002,-5.0047,-5.0124,-5.0188,-5.031,-5.0357,-5.043,-5.0434,-5.0484,-5.0444,-5.0434,-5.0432,-5.0428,-5.0433,-5.049,-5.0491,-5.0492,-5.0493,0,-4.9615,-4.9632,-4.9698,-4.9772,-4.9826,-4.9886,-4.9944,-4.9979,-5.0024,-5.0077,-5.0155,-5.0204,-5.0302,-5.0379,-5.0456,-5.0494,-5.0501,-5.0505,-5.0521,-5.0512,-5.0494,-5.0503,-5.0361,-5.0501,-5.05,-5.05,-5.0499,-5.0499,-4.9687,-4.9739,-4.9802,-4.9875,-4.9923,-4.9978,-5.0032,-5.0073,-5.0139,-5.0221,-5.0238,-5.0321,-5.0384,-5.0488,-5.053,-5.0595,-5.0584,-5.0607,-5.0612,-5.0617,-5.0618,-5.0486,-5.0609,-5.0609,-5.0609,-5.0609,-5.0609,0,-4.9794,-4.9835,-4.9902,-4.9984,-5.0041,-5.0043,-5.0109,-5.0156,-5.0229,-5.0288,-5.035,-5.044,-5.0515,-5.0568,-5.0644,-5.0686,-5.0691,-5.0705,-5.0701,-5.071,-5.0624,-5.0602,-5.0699,-5.0699,-5.0699,-5.0699,-5.0699,-5.0699,-4.9856,-4.9944,-4.9969,-5.0081,-5.0123,-5.0204,-5.0241,-5.0291,-5.0338,-5.0438,-5.05,-5.0534,-5.0591,-5.0671,-5.074,-5.0753,-5.078,-5.0793,-5.0807,-5.0725,-5.0716,-5.0706,-5.0686,-5.0799,-5.0799,-5.0887,-5.0888,-5.0888]},{"header":{"parameterUnit":"m.s-1","parameterCategory":1,"la1":30.2991,"la2":30.254,"lo1":-89.0895,"lo2":-89.0444,"dy":0.0017,"dx":0.0017,"nx":28,"ny":28,"refTime":"2025-04-17T21:00:00:Z","depth":0,"parameterNumber":3,"parameterNumberName":"V-component_of_WINDS"},"data":[0,0,0,0,0,0,0,0,0,0,0,0,0,0,0,0,0,0,0,0,0,0,0,0,0,0,0,0,0,0,0,0,0,0,0,0,0,0,0,0,0,0,0,0,0,0,0,0,0,0,0,0,0,0,0,0,0,0,4.3656,4.3656,0,4.3729,4.373,4.3731,4.3709,4.3707,4.3705,4.3704,4.3774,4.3778,4.3781,0,0,0,0,0,0,0,0,0,0,0,0,0,4.3493,4.3496,4.3655,4.3656,4.3657,4.3729,4.373,4.3731,4.3709,4.3707,4.3705,4.3703,4.3773,4.3777,4.3781,0,0,0,0,0,0,0,0,0,0,0,0,0,4.3564,4.3497,4.3655,4.3655,4.3656,4.3729,4.373,4.3731,4.3709,4.3707,4.3705,4.3702,4.3772,4.3777,4.3782,4.3858,0,0,4.3797,4.3799,0,0,0,0,0,0,0,0,4.356,4.357,4.3654,4.3655,4.3656,4.3707,4.3698,4.3773,4.371,4.3689,4.3704,4.3701,4.3754,4.376,4.3779,4.3861,4.3864,4.3797,4.38,4.3802,4.3804,0,0,0,0,0,0,0,4.3555,4.3567,4.3684,4.3655,4.3657,4.365,4.3658,4.3712,4.3733,4.369,4.3689,4.3698,4.3754,4.3774,4.378,4.3865,4.3797,4.3801,4.3804,4.3806,4.4016,4.4018,0,0,0,0,0,0,4.355,4.3563,4.3682,4.3687,4.3602,4.3655,4.3664,4.3693,4.3732,4.3736,4.37,4.3697,4.3767,4.3774,4.3782,4.3876,4.3802,4.3807,4.381,4.4013,4.4016,4.4019,0,0,0,0,0,0,4.3547,4.3561,4.3679,4.3625,4.3639,4.366,4.3694,4.3696,4.3716,4.374,4.3743,4.3717,4.3765,4.3775,4.384,4.3878,4.3809,4.3814,4.401,4.4014,4.4018,4.4062,0,0,0,0,0,0,4.3542,4.356,4.359,4.3625,4.3642,4.3737,4.3696,4.3699,4.3725,4.3722,4.3757,4.376,4.3764,4.3833,4.3845,4.3883,4.3817,4.4007,4.4012,4.4017,4.4057,4.4067,4.4075,0,0,0,0,0,4.3537,4.3598,4.3591,4.3606,4.368,4.3739,4.3748,4.3753,4.3728,4.3758,4.3774,4.3759,4.3872,4.384,4.3853,4.3893,4.4004,4.4011,4.4016,4.4053,4.4065,4.4075,0,0,0,0,0,0,4.3564,4.3602,4.3596,4.3671,4.3702,4.3735,4.3773,4.3765,4.3802,4.3797,4.38,4.3808,4.3875,4.389,4.3854,4.397,4.3934,4.3943,4.3958,4.3969,4.3978,4.3973,4.3822,0,0,0,0,0,4.3579,4.3625,4.3655,4.3718,4.3735,4.3751,4.3777,4.3778,4.381,4.3822,4.3843,4.3873,4.3915,4.3943,4.3983,4.4059,4.4067,4.4094,4.4103,4.411,4.4118,4.4161,4.4173,4.4038,4.4038,4.4038,0,0,4.3609,4.3636,4.3665,4.3725,4.3749,4.3796,4.3762,4.3812,4.3847,4.3829,4.3893,4.3909,4.3942,4.4014,4.4046,4.4029,4.4157,4.4117,4.4123,4.4127,4.4168,4.4181,4.4192,4.4042,4.4042,4.4041,0,0,4.369,4.3715,4.3771,4.3797,4.3835,4.3846,4.386,4.3895,4.3906,4.3969,4.3958,4.3998,4.4071,4.4096,4.4118,4.4211,4.4199,4.4224,4.4271,4.4312,4.4323,4.4333,4.4367,4.4379,4.4231,4.4231,4.4231,0,4.3723,4.3794,4.38,4.3853,4.388,4.3868,4.3925,4.3949,4.3998,4.4017,4.3997,4.4089,4.4111,4.4189,4.4212,4.423,4.4246,4.422,4.4321,4.4331,4.434,4.4372,4.4385,4.4234,4.4234,4.4234,4.4233,0,4.3834,4.3883,4.3924,4.3974,4.4006,4.406,4.4073,4.4104,4.4103,4.4116,4.4182,4.4208,4.4254,4.4273,4.4271,4.4351,4.4339,4.4321,4.4285,4.4355,4.4386,4.4399,4.4238,4.4237,4.4236,4.4236,0,0,4.3932,4.3987,4.4002,4.4025,4.4068,4.4106,4.416,4.4207,4.4234,4.4268,4.4314,4.4376,4.436,4.4386,4.4387,4.4423,4.4497,4.44,4.4401,4.4418,4.4588,4.4603,4.4617,4.449,4.4492,4.4494,4.4586,0,4.4017,4.4114,4.4122,4.4209,4.4255,4.4246,4.4293,4.4324,4.4338,4.4378,4.4393,4.4438,4.4413,4.4428,4.4464,4.448,4.4531,4.4474,4.4531,4.4533,4.4524,4.4633,4.4648,4.4733,4.4598,4.46,4.4601,0,4.4129,4.417,4.4262,4.43,4.432,4.4362,4.4407,4.4446,4.4481,4.4489,4.4519,4.4515,4.457,4.4533,4.4608,4.4569,4.4593,4.4605,4.4608,4.4614,4.4572,4.4642,4.4761,4.4774,4.462,4.4618,4.4617,0,4.4193,4.4271,4.4337,4.4357,4.4402,4.4433,4.4453,4.4485,4.4514,4.4553,4.4572,4.4615,4.4639,4.4673,4.4682,4.4653,4.4758,4.472,4.4765,4.4765,4.4788,4.4787,4.4913,4.4802,4.4802,4.4802,4.4802,0,4.4288,4.4345,4.4367,4.4407,4.4471,4.4479,4.4542,4.456,4.4589,4.4633,4.4626,4.4667,4.4675,4.4718,4.4724,4.4787,4.4797,4.4805,4.4806,4.4806,4.4805,4.4822,4.4816,4.4805,4.4805,4.4804,4.4803,0,4.437,4.4387,4.4459,4.4497,4.4508,4.4553,4.4586,4.4624,4.4638,4.4693,4.4707,4.4728,4.4777,4.4789,4.4847,4.4852,4.4926,4.4921,4.4915,4.4915,4.496,4.4956,4.5102,4.5122,4.4998,4.4999,4.5,0,4.443,4.4474,4.4518,4.4548,4.457,4.4618,4.4648,4.4658,4.4689,4.4733,4.4767,4.4816,4.4856,4.4935,4.4955,4.5,4.4996,4.5045,4.5003,4.5002,4.4999,4.4996,4.5001,4.5052,4.5054,4.5055,4.5056,0,4.4534,4.4541,4.4586,4.4634,4.4671,4.4708,4.4744,4.4769,4.4783,4.4819,4.4871,4.4902,4.4963,4.5012,4.5058,4.5077,4.5069,4.5069,4.5082,4.5082,4.5078,4.5082,4.4938,4.5065,4.5064,4.5064,4.5063,4.5063,4.4608,4.4648,4.4686,4.4736,4.4765,4.4799,4.4839,4.4858,4.4902,4.4954,4.4957,4.5014,4.5048,4.5109,4.5131,4.5175,4.516,4.5179,4.5184,4.5188,4.5193,4.5071,4.5183,4.5183,4.5183,4.5182,4.5182,0,4.4713,4.4738,4.4784,4.4837,4.4876,4.4867,4.4907,4.4941,4.4991,4.5025,4.5066,4.5126,4.5174,4.5198,4.5246,4.5276,4.5274,4.5289,4.5287,4.5292,4.5203,4.5188,4.529,4.529,4.529,4.529,4.529,4.529,4.4773,4.484,4.4852,4.4934,4.4957,4.5015,4.5038,4.507,4.5098,4.5166,4.5207,4.5223,4.5253,4.5304,4.5347,4.5353,4.5371,4.5388,4.5392,4.5309,4.5298,4.5287,4.5273,4.5392,4.5392,4.5477,4.5478,4.5479]}]]